This is the latest recevied weather packets stored in our database for station/object SR9NCI. If no packets are shown the sender has not sent any weather packets the latest 1 day(s).
| Time | Temp. | Humidity | Pressure | Rain* | Wind** | Luminosity | Snow |
|---|---|---|---|---|---|---|---|
| 1836274721 | 18.33° C | - | 0 hPa | - | 2.68 m/s, 157° | - | - |
| 1836274479 | 18.33° C | - | 0 hPa | - | 2.68 m/s, 145° | - | - |
| 1836274462 | 18.33° C | - | 0 hPa | - | 3.13 m/s, 147° | - | - |
| 1836274238 | 18.33° C | - | 0 hPa | - | 1.79 m/s, 156° | - | - |
| 1836274220 | 18.33° C | - | 0 hPa | - | 2.24 m/s, 154° | - | - |
| 1836273997 | 18.33° C | - | 0 hPa | - | 2.68 m/s, 150° | - | - |
| 1778019620 | 20° C | - | 0 hPa | - | 4.02 m/s, 167° | - | - |
| 1778019378 | 20° C | - | 0 hPa | - | 4.02 m/s, 176° | - | - |
| 1778019137 | 20° C | - | 0 hPa | - | 4.92 m/s, 152° | - | - |
| 1778018895 | 20° C | - | 0 hPa | - | 5.36 m/s, 173° | - | - |
| 1778018645 | 20° C | - | 0 hPa | - | 4.02 m/s, 165° | - | - |
| 1778018404 | 20° C | - | 0 hPa | - | 3.58 m/s, 153° | - | - |
| 1778018163 | 20° C | - | 0 hPa | - | 5.81 m/s, 171° | - | - |
| 1778017922 | 20° C | - | 0 hPa | - | 4.47 m/s, 154° | - | - |
| 1778017680 | 20° C | - | 0 hPa | - | 4.02 m/s, 166° | - | - |
| 1778017438 | 20° C | - | 0 hPa | - | 7.15 m/s, 164° | - | - |
| 1778017196 | 20° C | - | 0 hPa | - | 4.92 m/s, 152° | - | - |
| 1778016955 | 20° C | - | 0 hPa | - | 4.47 m/s, 151° | - | - |
| 1778016714 | 20° C | - | 0 hPa | - | 4.92 m/s, 151° | - | - |
| 1778016471 | 20° C | - | 0 hPa | - | 4.02 m/s, 143° | - | - |
| 1778016223 | 20° C | - | 0 hPa | - | 3.58 m/s, 150° | - | - |
| 1778015981 | 20° C | - | 0 hPa | - | 4.47 m/s, 158° | - | - |
| 1778015740 | 20° C | - | 0 hPa | - | 4.02 m/s, 148° | - | - |
| 1778015498 | 20° C | - | 0 hPa | - | 4.47 m/s, 150° | - | - |
| 1778015256 | 20° C | - | 0 hPa | - | 3.58 m/s, 154° | - | - |
* Rain since midnight (hover to see other rain measurements)
** Current wind speed in m/s (hover to see current wind gust speed)